Starlink 32163

operational
NORAD ID: 60262 Int'l Des: 2024-131 Owner: SPXS Country: US Constellation: starlink
LEOCIRCULAR

Starlink 32163について

説明を読み込み中...

リアルタイム位置

3D地球を読み込み中...

次回通過

高度履歴

Altitude vs Time

uPlot chart will show altitude changes over time

軌道要素

1 60262U 24131H 25258.41057797 .00003051 00000-0 11510-3 0 9999
2 60262 53.1605 146.5108 0002242 92.3907 267.7350 15.30203852 64888
Epoch: Sep 15, 2025 • Age: 20 hours

現在のステータス

高度 492.4 km
速度 7.62 km/s
衛星直下点 -46.70°S, 66.49°W
打ち上げ日 Jul 27, 2024
運用期間 1.1 years
タイプ internet

技術仕様

分類 Payload
質量 730.00 kg
乾燥質量 700.00 kg
総質量 730.00 kg
長さ 0.30 m
直径 4.10 m
スパン 29.00 m
形状 Box + pan
製造者 SPXS
バスタイプ Starlink V2M
フェーズステータス In Orbit
所有者/国 SPXS/US

大規模コンステレーション

Loading constellations...